timestamp,surface_pressure_avg,surface_temp_avg,battery_voltage,lat,long
2022-09-12 00:09:00+00:00,373.86800000000005,6.79,11.46,47.84626,-54.09684
2022-09-12 00:19:00+00:00,378.9446,6.79,11.46,47.84626,-54.09684
2022-09-12 00:29:00+00:00,381.5446,6.8,11.46,47.84626,-54.09684
2022-09-12 00:39:00+00:00,384.5246,6.8,11.46,47.84626,-54.09684
2022-09-12 00:49:00+00:00,385.9213,6.86,11.46,47.84626,-54.09684
2022-09-12 00:59:00+00:00,384.9329,6.6,11.46,47.84626,-54.09684
2022-09-12 01:09:00+00:00,382.8712,6.2,11.46,47.84626,-54.09684
2022-09-12 01:19:01+00:00,383.1046,6.0,11.37,47.84626,-54.09684
2022-09-12 01:29:01+00:00,379.9012,5.82,11.37,47.84626,-54.09684
2022-09-12 01:39:01+00:00,375.1646,5.3,11.37,47.84626,-54.09684
2022-09-12 01:49:01+00:00,369.9146,5.1,11.37,47.84626,-54.09684
2022-09-12 01:59:01+00:00,362.3528,5.1,11.37,47.84626,-54.09684
2022-09-12 02:09:01+00:00,356.333,5.1,11.37,47.84626,-54.09684
2022-09-12 02:19:00+00:00,352.99800000000016,5.46,11.37,47.84626,-54.09684
2022-09-12 02:29:00+00:00,348.8245,6.41,11.37,47.84626,-54.09684
2022-09-12 02:39:00+00:00,339.73800000000006,6.5,11.37,47.84626,-54.09684
2022-09-12 02:49:00+00:00,332.7396,6.4,11.37,47.84626,-54.09684
2022-09-12 02:59:00+00:00,325.668,6.08,11.37,47.84626,-54.09684
2022-09-12 03:09:00+00:00,316.6196,5.8,11.37,47.84626,-54.09684
2022-09-12 03:19:00+00:00,306.2014,5.18,11.37,47.84626,-54.09684
2022-09-12 03:29:00+00:00,298.1263,4.83,11.37,47.84626,-54.09684
2022-09-12 03:39:00+00:00,288.2713,4.8,11.37,47.84626,-54.09684
2022-09-12 03:49:00+00:00,276.4563,5.09,11.37,47.84626,-54.09684
2022-09-12 03:59:00+00:00,268.3164,6.67,11.37,47.84626,-54.09684
2022-09-12 04:09:00+00:00,261.5298,6.57,11.37,47.84626,-54.09684
2022-09-12 04:19:01+00:00,249.7115,6.36,11.37,47.84626,-54.09684
2022-09-12 04:29:01+00:00,236.8715,6.57,11.37,47.84626,-54.09684
2022-09-12 04:39:01+00:00,227.3931,5.66,11.37,47.84626,-54.09684
2022-09-12 04:49:01+00:00,219.4564,5.62,11.37,47.84626,-54.09684
2022-09-12 04:59:01+00:00,209.5547,5.82,11.37,47.84626,-54.09684
2022-09-12 05:09:01+00:00,200.5865,6.26,11.37,47.84626,-54.09684
2022-09-12 05:19:00+00:00,194.7298,6.56,11.37,47.84626,-54.09684
2022-09-12 05:29:00+00:00,188.7899,6.6,11.37,47.84626,-54.09684
2022-09-12 05:39:00+00:00,181.4598,6.56,11.37,47.84626,-54.09684
2022-09-12 05:49:00+00:00,178.4282,6.5,11.37,47.84626,-54.09684
2022-09-12 05:59:00+00:00,177.3865,6.5,11.37,47.84626,-54.09684
2022-09-12 06:09:00+00:00,174.5815,6.43,11.37,47.84626,-54.09684
2022-09-12 06:19:00+00:00,169.9965,6.36,11.37,47.84626,-54.09684
2022-09-12 06:29:00+00:00,168.6282,6.1,11.37,47.84626,-54.09684
2022-09-12 06:39:00+00:00,171.9548,6.0,11.37,47.84626,-54.09684
2022-09-12 06:49:00+00:00,175.5231,5.9,11.37,47.84626,-54.09684
2022-09-12 06:59:00+00:00,176.2532,5.89,11.37,47.84626,-54.09684
2022-09-12 07:09:00+00:00,179.7332,5.84,11.37,47.84626,-54.09684
2022-09-12 07:19:00+00:00,186.0398,5.9,11.37,47.84626,-54.09684
2022-09-12 07:29:00+00:00,189.6698,5.9,11.37,47.84626,-54.09684
2022-09-12 07:39:00+00:00,192.2281,5.9,11.37,47.84626,-54.09684
2022-09-12 07:49:00+00:00,197.6382,5.9,11.37,47.84626,-54.09684
2022-09-12 07:59:00+00:00,204.2865,5.87,11.37,47.84626,-54.09684
2022-09-12 08:09:00+00:00,208.8714,5.9,11.37,47.84626,-54.09684
2022-09-12 08:19:00+00:00,212.9414,5.91,11.37,47.84626,-54.09684
2022-09-12 08:29:00+00:00,218.6631,5.9,11.37,47.84626,-54.09684
2022-09-12 08:39:00+00:00,223.1064,5.9,11.37,47.84626,-54.09684
2022-09-12 08:49:00+00:00,228.0098,5.78,11.37,47.84626,-54.09684
2022-09-12 08:59:00+00:00,234.5381,5.6,11.37,47.84626,-54.09684
2022-09-12 09:09:00+00:00,239.1398,5.62,11.37,47.84626,-54.09684
2022-09-12 09:19:00+00:00,241.7697,5.93,11.37,47.84626,-54.09684
2022-09-12 09:29:00+00:00,246.2714,6.0,11.37,47.84626,-54.09684
2022-09-12 09:39:00+00:00,253.3914,5.9,11.37,47.84626,-54.09684
2022-09-12 09:49:00+00:00,260.1164,5.66,11.37,47.84626,-54.09684
2022-09-12 09:59:00+00:00,266.1848,5.6,11.37,47.84626,-54.09684
2022-09-12 10:09:00+00:00,271.548,5.6,11.37,47.84626,-54.09684
2022-09-12 10:19:00+00:00,278.8581,5.62,11.37,47.84626,-54.09684
2022-09-12 10:29:00+00:00,287.3297,5.22,11.37,47.84626,-54.09684
2022-09-12 10:39:00+00:00,295.7781,5.4,11.37,47.84626,-54.09684
2022-09-12 10:49:00+00:00,303.6714,5.44,11.37,47.84626,-54.09684
2022-09-12 10:59:00+00:00,313.6896,5.49,11.37,47.84626,-54.09684
2022-09-12 11:09:00+00:00,324.71299999999997,5.5,11.37,47.84626,-54.09684
2022-09-12 11:19:00+00:00,333.0797,5.4,11.37,47.84626,-54.09684
2022-09-12 11:29:00+00:00,340.3213,5.19,11.37,47.84626,-54.09684
2022-09-12 11:39:00+00:00,349.3613,4.8,11.37,47.84626,-54.09684
2022-09-12 11:49:00+00:00,356.778,4.5,11.37,47.84626,-54.09684
2022-09-12 11:59:00+00:00,362.3846,4.5,11.37,47.84626,-54.09684
2022-09-12 12:09:00+00:00,367.6963,4.1,11.37,47.84626,-54.09684
2022-09-12 12:19:00+00:00,373.8196,4.0,11.37,47.84626,-54.09684
2022-09-12 12:29:00+00:00,378.2863,4.32,11.37,47.84626,-54.09684
2022-09-12 12:39:00+00:00,379.1612,4.71,11.37,47.84626,-54.09684
2022-09-12 12:49:00+00:00,379.5013,4.8,11.37,47.84626,-54.09684
2022-09-12 12:59:00+00:00,380.3596,4.75,11.37,47.84626,-54.09684
2022-09-12 13:09:00+00:00,380.4929,4.83,11.37,47.84626,-54.09684
2022-09-12 13:19:00+00:00,379.3511,5.05,11.53,47.84626,-54.09684
2022-09-12 13:29:00+00:00,377.1696,5.39,11.53,47.84626,-54.09684
2022-09-12 13:39:00+00:00,376.0679,5.6,11.53,47.84626,-54.09684
2022-09-12 13:49:00+00:00,374.0112,5.7,11.53,47.84626,-54.09684
2022-09-12 13:59:00+00:00,370.1279,5.75,11.53,47.84626,-54.09684
2022-09-12 14:09:00+00:00,365.3913,5.78,11.53,47.84626,-54.09684
2022-09-12 14:19:00+00:00,361.3096,5.79,11.53,47.84626,-54.09684
2022-09-12 14:29:00+00:00,358.3096,5.86,11.53,47.84626,-54.09684
2022-09-12 14:39:00+00:00,353.4163,5.84,11.53,47.84626,-54.09684
2022-09-12 14:49:00+00:00,346.3463,5.06,11.53,47.84626,-54.09684
2022-09-12 14:59:00+00:00,339.8163,4.7,11.53,47.84626,-54.09684
2022-09-12 15:09:00+00:00,336.05300000000005,4.89,11.53,47.84626,-54.09684
2022-09-12 15:19:00+00:00,329.6913,5.1,11.53,47.84626,-54.09684
2022-09-12 15:29:00+00:00,321.6379,5.14,11.53,47.84626,-54.09684
2022-09-12 15:39:00+00:00,314.8363,5.47,11.53,47.84626,-54.09684
2022-09-12 15:49:00+00:00,305.6346,5.6,11.53,47.84626,-54.09684
2022-09-12 15:59:00+00:00,293.808,5.68,11.53,47.84626,-54.09684
2022-09-12 16:09:00+00:00,284.5997,5.8,11.53,47.84626,-54.09684
2022-09-12 16:19:01+00:00,277.188,5.89,11.53,47.84626,-54.09684
2022-09-12 16:29:01+00:00,265.2531,6.44,11.53,47.84626,-54.09684
2022-09-12 16:39:01+00:00,252.5064,6.5,11.53,47.84626,-54.09684
2022-09-12 16:49:01+00:00,247.5014,6.3,11.53,47.84626,-54.09684
2022-09-12 16:59:01+00:00,239.8531,6.53,11.53,47.84626,-54.09684
2022-09-12 17:09:01+00:00,225.7831,6.4,11.53,47.84626,-54.09684
2022-09-12 17:19:00+00:00,214.8548,6.3,11.61,47.84626,-54.09684
2022-09-12 17:29:00+00:00,209.9798,6.26,11.61,47.84626,-54.09684
2022-09-12 17:39:00+00:00,201.9681,6.3,11.61,47.84626,-54.09684
2022-09-12 17:49:00+00:00,192.9565,6.66,11.61,47.84626,-54.09684
2022-09-12 17:59:00+00:00,191.1898,6.73,11.61,47.84626,-54.09684
2022-09-12 18:09:00+00:00,187.6898,6.94,11.61,47.84626,-54.09684
2022-09-12 18:19:00+00:00,178.7898,7.0,11.61,47.84626,-54.09684
2022-09-12 18:29:00+00:00,176.6931,6.9,11.61,47.84626,-54.09684
2022-09-12 18:39:00+00:00,180.0498,6.8,11.61,47.84626,-54.09684
2022-09-12 18:49:00+00:00,176.1931,6.85,11.61,47.84626,-54.09684
2022-09-12 18:59:00+00:00,171.7115,6.9,11.61,47.84626,-54.09684
2022-09-12 19:09:00+00:00,176.3998,6.9,11.61,47.84626,-54.09684
2022-09-12 19:19:00+00:00,179.2398,6.87,11.61,47.84626,-54.09684
2022-09-12 19:29:00+00:00,177.3914,6.85,11.61,47.84626,-54.09684
2022-09-12 19:39:00+00:00,178.6482,6.9,11.61,47.84626,-54.09684
2022-09-12 19:49:00+00:00,182.7415,7.0,11.61,47.84626,-54.09684
2022-09-12 19:59:00+00:00,185.2398,7.09,11.61,47.84626,-54.09684
2022-09-12 20:09:00+00:00,188.7481,6.8,11.61,47.84626,-54.09684
2022-09-12 20:19:00+00:00,195.4681,6.75,11.53,47.84626,-54.09684
2022-09-12 20:29:00+00:00,202.1831,6.6,11.53,47.84626,-54.09684
2022-09-12 20:39:00+00:00,208.4531,6.27,11.53,47.84626,-54.09684
2022-09-12 20:49:00+00:00,215.2831,5.44,11.53,47.84626,-54.09684
2022-09-12 20:59:00+00:00,220.2148,5.25,11.53,47.84626,-54.09684
2022-09-12 21:09:00+00:00,225.2547,5.7,11.53,47.84626,-54.09684
2022-09-12 21:19:00+00:00,232.3648,4.65,11.53,47.84626,-54.09684
2022-09-12 21:29:00+00:00,238.558,4.56,11.53,47.84626,-54.09684
2022-09-12 21:39:00+00:00,243.1364,5.28,11.53,47.84626,-54.09684
2022-09-12 21:49:00+00:00,248.5064,5.87,11.53,47.84626,-54.09684
2022-09-12 21:59:00+00:00,255.5064,4.43,11.53,47.84626,-54.09684
2022-09-12 22:09:00+00:00,261.7031,3.2,11.53,47.84626,-54.09684
2022-09-12 22:19:00+00:00,264.4564,3.0,11.46,47.84626,-54.09684
2022-09-12 22:29:00+00:00,269.3964,2.99,11.46,47.84626,-54.09684
2022-09-12 22:39:00+00:00,277.9947,3.61,11.46,47.84626,-54.09684
2022-09-12 22:49:00+00:00,287.0364,2.7,11.46,47.84626,-54.09684
2022-09-12 22:59:00+00:00,293.1464,2.84,11.46,47.84626,-54.09684
2022-09-12 23:09:00+00:00,300.2581,2.8,11.46,47.84626,-54.09684
2022-09-12 23:19:01+00:00,310.7113,2.6,11.46,47.84626,-54.09684
2022-09-12 23:29:01+00:00,320.6829,2.5,11.46,47.84626,-54.09684
2022-09-12 23:39:01+00:00,328.4279,2.4,11.46,47.84626,-54.09684
2022-09-12 23:49:01+00:00,337.8579,2.31,11.46,47.84626,-54.09684
2022-09-12 23:59:01+00:00,347.4912,2.3,11.46,47.84626,-54.09684
